Aérodrome :
LOGIN :

S'inscrire | Disclaimer

   EN    FR    IT 

 










Légende :    VFR   VFR Marginal   IFR   IFR Intensif   IFR Très Intensif
Visi : 
Plafond : 
>= 8 km
>= 3000ft
5 à 8 km
1000 à 3000 ft
1500m à 5 km
500 à 1000 ft
800 à 1500m
200 à 500 ft
< 800m
< 200 ft
Symboles :   Orages  Brouillard  Fortes neiges  Fortes précipitations  Vent > 20 kt
SIGMETs :   Divers  Orages  Givrage  Turbulence  Onde Orograph.  Cendres Volcan.







- Altitude de l'aérodrome : 1267 ft
- Code IATA : CUF


LIMZ - Cuneo Levaldigi

DERNIER METAR :
  • 260650Z 27002KT 9999 BKN030 08/07 Q1018

METARs EXPIRÉS :
  • 260550Z 26004KT 9999 BKN030 08/07 Q1018
  • 260450Z 01002KT 9000 OVC020 08/07 Q1017

TAF TAF LIMZ
Valide du 26 à 06h jusqu'au 27 à 06h UTC


260500Z 2606/2706 VRB05KT 7000 BKN025 BKN070
TEMPO 2623/2706 RA
Pas de NOTAMs connus pour ce terrain.



MET'MAP, la Météo Aéronautique d'un coup d'oeil ! - Copyright ORBIFLY Décembre 2007 - Disclaimer

ORBIFLY MET'MAP TEAM :

Programmation & Développement : Alexandra Zaïnal
Conception & Développement : Baudouin d'Aumeries
Co-Programmation & Développement : Marc-Olivier Méhu
Soutien technique & logistique : Manuel Goepfert

Contact : metmap@orbifly.com




SOURCES & CREDITS :

   NOAA